Regional Weather Roundup
Issued by NWS Charleston, SC

Current Version | Previous Version | Graphics & Text | Print | Product List | Glossary On
Versions: 1 2 3 4 5 6 7 8 9 10 11 12 13 14 15 16 17 18 19 20 21 22 23 24 25 26 27 28 29 30 31 32 33 34 35 36 37 38 39 40 41 42 43 44 45 46 47 48 49 50
000 ASUS42 KCHS 041428 RWRCHS REGIONAL WEATHER ROUNDUP NATIONAL WEATHER SERVICE CHARLESTON SC 1000 AM EDT WED MAY 04 2016 NOTE: "FAIR" INDICATES FEW OR NO CLOUDS BELOW 12,000 FEET WITH NO SIGNIFICANT WEATHER AND/OR OBSTRUCTIONS TO VISIBILITY. NOT ALL STATIONS ARE QUALITY CONTROLLED. USE DATA WITH CAUTION... ESPECIALLY DEWPOINT OBSERVATIONS. SCZ027-030-031-034>040-042>050-041500- ...SOUTHEAST SOUTH CAROLINA... CITY SKY/WX TMP DP RH WIND PRES REMARKS N CHARLESTON MOSUNNY 72 62 71 W10 29.72S WATERFRONT PRK N/A 70 64 81 W6 29.71S MOUNT PLEASANT FAIR 73 63 68 W10 29.71F JOHNS ISLAND FAIR 73 63 68 W9 29.72F PINOPOLIS N/A 72 64 78 W12 29.65F MONCKS CORNER FAIR 70 57 64 W7 29.71S SUMMERVILLE FAIR 73 61 64 W6 29.73S BEAUFORT MCAS MOSUNNY 73 59 61 NW9 29.75S BEAUFORT ARPT FAIR 73 59 60 NW12 29.74S HILTON HEAD IS PTSUNNY 72 61 68 SW6 29.77S WALTERBORO SUNNY 73 55 53 W9 29.74S ALLENDALE FAIR 72 54 53 W6 29.74S ...SOUTHERN MIDLANDS AND PEE DEE... CITY SKY/WX TMP DP RH WIND PRES REMARKS GEORGETOWN PTSUNNY 70 64 83 W10 29.71S KINGSTREE FAIR 70 59 68 W7 29.69F ORANGEBURG SUNNY 71 54 54 NW9 29.72F BARNWELL FAIR 75 55 50 W3 29.74F AIKEN FAIR 66 52 59 NW7 29.78F MANNING FAIR 70 57 64 NW7 29.70F COLUMBIA SUNNY 71 54 54 NW8 29.72F SUMTER MOSUNNY 69 58 68 VRB6 29.69F FLORENCE MOSUNNY 71 57 61 NE5 29.69F MYRTLE BEACH PTSUNNY 72 61 68 W8 29.71S N MYRTLE BEACH LGT RAIN 71 66 84 W5 29.68S $$ GAZ063-065-086>088-099>101-113>116-118-119-134>141-150-041500- ...SOUTHEAST GEORGIA... CITY SKY/WX TMP DP RH WIND PRES REMARKS SAVANNAH ARPT PTSUNNY 72 58 61 NW12 29.77S HUNTER AAF MOSUNNY 72 63 73 NW12 29.75R FORT STEWART PTSUNNY 71 58 62 NW6 29.77R STATESBORO SUNNY 74 58 57 NW9 29.78S SYLVANIA SUNNY 72 58 63 NW9 29.77S CLAXTON FAIR 72 58 60 W9 29.79S ...CSRA...CENTRAL AND FAR SOUTHEAST GEORGIA... CITY SKY/WX TMP DP RH WIND PRES REMARKS THOMSON SUNNY 68 53 58 NW9G16 29.82S AUGUSTA-BUSH SUNNY 69 51 52 NW12 29.75F AUGUSTA-DANIEL SUNNY 68 51 54 NW9 29.77F SWAINSBORO FAIR 70 46 43 N8 29.79S VIDALIA SUNNY 70 52 52 NW6 29.80S EASTMAN FAIR 70 49 47 N7 29.84S HAZLEHURST FAIR 72 55 55 NW5 29.80F ALMA SUNNY 71 56 58 NW10G17 29.81R WAYCROSS MOSUNNY 71 59 64 N9 29.81R JESUP CLOUDY 73 63 68 N8 29.80S BAXLEY FAIR 72 55 56 N7 29.80R BRUNSWICK PTSUNNY 77 64 65 W9 29.79S SAINT SIMONS CLOUDY 72 63 73 NW10 29.78R $$ SCZ027-028-034-036>038-045-046-048>050-GAZ119-141-041500- ...LAKE AND SUPPLEMENTAL COASTAL OBSERVATIONS... STATION/POSITION TIME TEMP WIND PRES WAVE SWELL AIR SEA DIR/SP/G HT/PER HT/PER/DIR (UTC) (F) (DEG/KT/KT) (MB) (FT/S) (FT/S/D) WINYAH BAY 1300 68 250/ 7 1005.0S LAKE MURRAY 1300 66 310/ 2/ 5 1006.8F ACE BASIN NERRS 1300 69 270/ 2 1008.0S FORT PULASKI 1400 71 74 290/ 12/ 14 1008.0R SAPELO ISLAND 1400 73 320/ 9 1008.0S $$ ANZ835-935-AMZ111-154-330-350-352-354-370-450-454-472-041500- ...C-MAN AND BUOY OBSERVATIONS... STATION/POSITION TIME TEMP WIND PRES WAVE SWELL AIR SEA DIR/SP/G HT/PER HT/PER/DIR (UTC) (F) (DEG/KT/KT) (MB) (FT/S) (FT/S/D) BUOY 41004 1350 72 74 280/ 14/ 17 1005.5F 3/ 8 2/ 8 BUOY 41008 NOT AVBL FOLLY BEACH CMAN 1400 71 270/ 7/ 10 1006.4F CAPERS NEARSHORE 1308 69 71 290/ 8/ 14 1006.0F FRIPP NEARSHORE 1408 71 74 300/ 10/ 16 1006.7R STATION/POSITION TIME TEMP WIND PRES WAVE SWELL AIR SEA DIR/SP/G HT/PER HT/PER/DIR (UTC) (F) (DEG/KT/KT) (MB) (FT/S) (FT/S/D) 5E ST. MARYS GA 1321 72 N/A 2/10 FRYING PAN BUOY 1400 73 73 220/ 14/ 17 1005.1R BUOY 41025 1350 71 72 250/ 12/ 16 1004.7F 4/ 7 2/170/ 7 CAPE LOOKOUT NC 1400 69 270/ 5/ 7 1004.6R BUOY 41002 1350 71 74 140/ 10/ 12 1007.6F 5/ 7 5/230/ 7 BUOY 41010 1320 78 78 220/ 12/ 14 1008.8F ST AUGUSTINE FL 1400 75 71 230/ 8/ 10 1009.3R $$

USA.gov is the U.S. government's official web portal to all federal, state and local government web resources and services.